RH
82 83 85 85 84 83 82 83 85 86 84 82 80 79 76 73 69 60 55 54 51 48 46 47 47 46 45 43 42 39 36 34 30 28 27 24 26 29 28 26 24 24 23 28 34 32 32 38 49 68 95 90
79 75 73 70 67 64 64 65 67 69 71 72 72 70 66 60 56 53 53 53 51 49 46 46 45 44 42 40 38 36 33 30 28 26 23 20 23 25 25 26 23 21 17 18 23 25 37 47 48 65 98 100
59 55 55 55 54 54 54 56 58 59 61 62 61 58 55 52 50 50 50 48 47 45 43 42 42 40 38 36 34 33 30 27 24 21 19 19 20 21 22 23 21 18 16 17 19 18 28 48 60 67 89 102
47 46 47 48 47 47 47 49 50 52 53 53 52 50 48 47 45 44 42 42 40 38 37 37 36 35 33 31 30 28 25 21 19 17 17 18 18 18 19 19 19 15 14 15 15 17 21 39 67 76 90 105
47 47 47 46 45 44 43 42 43 44 45 45 45 44 43 41 39 38 37 37 35 33 32 31 30 29 27 25 24 21 18 16 15 16 15 15 16 16 16 16 16 14 14 17 20 26 28 40 68 84 96 105
52 51 50 49 47 46 45 43 43 42 42 43 43 42 40 37 34 33 33 32 30 28 26 24 23 21 19 17 16 15 14 14 14 13 13 13 13 13 13 14 16 16 16 21 28 31 34 48 73 88 97 103
59 56 53 51 50 49 50 49 48 47 44 42 39 36 31 27 26 25 25 23 21 20 18 16 16 15 15 14 13 14 14 13 13 12 11 11 11 11 11 16 22 24 22 24 29 33 35 47 76 97 100 102
66 64 61 59 58 57 58 56 53 48 41 35 29 25 21 19 19 19 18 16 15 15 15 14 14 14 15 15 14 14 15 15 15 13 12 12 11 12 12 18 29 34 33 29 30 38 42 42 68 100 102 100
70 70 69 69 67 63 58 50 42 34 28 24 21 20 19 18 18 18 18 17 16 15 16 17 17 18 18 20 20 19 20 21 21 17 16 15 14 14 13 19 32 42 41 36 35 39 47 45 60 96 103 97
71 68 65 61 56 48 40 32 26 23 21 20 20 20 20 21 22 22 24 24 25 23 21 22 23 24 23 23 23 23 23 22 23 20 17 16 15 14 13 17 29 45 46 41 48 51 50 46 50 80 101 100
62 56 50 44 38 32 28 25 25 25 25 27 27 28 27 27 27 27 27 28 30 30 27 24 23 24 23 21 20 19 20 20 20 19 16 14 14 13 12 14 21 39 49 43 49 59 59 55 50 61 85 99
50 45 40 36 34 33 33 33 33 33 31 31 30 29 28 27 26 24 23 23 24 25 25 24 21 19 19 19 17 15 17 19 19 17 16 15 14 13 12 13 15 28 46 48 43 50 61 70 67 62 73 88
48 46 44 43 43 42 41 39 35 32 28 25 23 21 21 20 19 19 19 18 18 19 20 22 21 19 17 17 17 17 16 17 19 19 17 16 16 15 13 12 15 20 36 48 45 45 56 70 77 75 82 90
53 51 50 47 44 41 36 33 29 26 24 22 21 19 18 17 17 17 17 17 17 18 18 19 21 21 20 17 17 17 18 17 18 19 18 18 16 16 15 13 14 17 28 42 46 46 51 63 75 80 90 101
49 45 41 37 33 30 28 26 25 25 24 23 23 22 20 18 18 17 17 17 18 18 18 19 20 21 22 21 18 17 18 19 18 19 20 20 18 16 16 15 14 15 23 35 44 47 49 56 73 82 88 102
36 32 29 27 25 24 24 23 23 23 23 23 23 23 22 21 19 18 17 16 16 17 17 18 19 20 22 23 22 20 19 19 20 20 21 22 22 19 17 17 15 14 18 30 40 46 48 52 68 83 88 98
29 28 27 26 24 23 22 22 21 21 21 21 21 20 20 19 17 15 14 14 13 13 14 14 16 17 19 21 22 23 21 20 20 21 21 22 23 21 20 19 17 16 16 25 37 43 47 50 64 84 91 97
29 28 27 26 25 23 22 22 21 21 20 19 18 17 16 14 13 12 11 11 11 10 10 10 11 12 13 15 18 21 21 20 18 19 20 21 22 21 21 21 19 18 17 22 33 41 46 49 57 79 94 97
29 27 26 24 23 22 20 20 19 19 18 17 17 15 14 13 11 11 10 10 10 9 9 9 9 10 10 11 13 15 17 19 18 17 18 19 20 20 19 20 19 19 18 18 29 39 44 48 52 66 87 97
26 24 22 21 20 19 18 17 17 16 16 15 15 15 14 13 12 12 11 10 10 9 9 9 9 9 9 9 10 11 13 15 17 16 16 16 18 19 18 18 17 18 18 16 22 35 42 45 48 56 72 90
21 20 19 18 17 16 16 16 15 14 14 14 14 14 13 13 13 13 12 11 11 10 9 9 8 8 8 8 8 9 10 12 14 15 15 14 15 17 17 17 17 17 17 16 15 26 38 42 45 50 57 72
16 15 14 14 13 13 12 12 12 12 12 11 11 11 11 11 11 11 11 11 11 10 10 9 8 8 7 8 7 7 9 9 11 13 14 14 13 14 15 15 16 16 16 16 14 16 28 38 40 45 50 56
11 11 10 10 9 9 9 8 9 9 9 9 9 9 9 9 9 9 10 9 10 10 10 10 9 9 8 7 7 7 7 8 9 10 12 14 14 13 14 14 14 15 15 15 15 13 18 29 35 37 44 48
8 8 7 8 7 7 7 7 7 7 7 8 8 8 8 8 8 8 9 9 9 9 9 10 9 9 9 8 8 7 7 6 7 8 9 11 13 13 14 14 14 15 15 14 14 14 13 18 28 31 35 42
8 8 7 7 7 7 7 7 6 6 6 6 6 7 6 6 7 6 7 7 7 8 8 8 9 9 9 9 9 8 7 7 6 7 8 8 10 12 13 14 14 14 14 14 13 14 14 13 19 25 28 32
7 7 7 6 6 6 6 6 6 5 5 5 5 5 6 5 5 5 5 6 6 6 6 6 7 7 7 8 8 8 7 7 7 6 7 7 8 10 12 13 14 14 14 14 13 12 14 14 14 19 23 25
6 6 6 6 6 5 6 5 5 6 5 5 5 5 6 5 6 6 5 5 5 6 6 5 6 5 6 6 6 7 7 7 7 6 6 7 7 8 10 12 13 14 14 14 14 13 13 15 13 14 19 22
6 6 6 6 6 5 5 5 5 5 5 5 5 5 5 5 5 6 5 5 5 5 6 6 6 5 5 6 5 5 6 6 6 6 6 6 6 7 8 10 11 12 13 13 14 14 13 13 14 14 16 20
7 6 6 6 6 6 5 5 5 5 5 5 5 4 5 5 5 5 5 5 5 5 5 5 6 6 5 5 5 5 5 5 5 5 5 5 5 6 6 8 10 11 12 13 13 14 13 12 14 15 14 17
7 6 6 5 6 5 5 5 5 5 5 5 5 5 5 5 5 5 5 5 5 5 5 5 5 5 5 5 5 5 5 5 5 5 5 5 5 5 5 6 8 10 11 12 13 13 13 12 12 14 15 15
6 6 6 6 6 6 5 5 5 5 5 5 5 5 5 5 4 5 5 5 5 5 5 5 5 5 5 5 5 5 5 5 5 5 5 5 5 4 5 5 6 7 9 11 13 14 13 13 12 13 15 15
Wind_Speed
101 101 101 101 102 102 103 104 105 106 106 106 106 107 107 106 105 104 104 104 104 104 104 104 104 105 104 103 102 100 98 95 93 91 90 88 86 83 80 79 78 76 73 71 71 70 69 71 74 72 71 74
102 102 103 102 102 101 102 103 104 106 107 108 108 108 108 107 106 105 105 105 105 105 104 103 103 103 103 102 100 98 97 95 94 92 90 88 86 83 81 80 79 77 75 73 72 71 70 71 74 73 73 76
102 102 102 101 100 100 100 100 102 103 105 107 108 108 108 108 108 108 108 107 107 106 105 104 104 104 103 102 100 99 98 96 94 92 90 87 85 83 81 80 79 77 74 73 72 72 72 73 74 75 75 77
102 102 102 101 102 102 102 102 102 103 105 106 108 109 110 111 111 110 109 109 109 108 107 105 105 104 104 102 101 100 98 97 94 91 88 86 84 82 80 78 77 76 73 73 72 71 71 73 75 76 76 78
104 105 105 105 106 106 105 105 105 106 107 109 110 111 112 113 113 112 110 110 109 108 107 106 104 104 103 102 101 99 97 95 92 89 87 84 82 80 78 76 76 76 72 70 70 68 68 73 76 77 78 79
109 109 110 110 110 110 110 109 109 109 110 111 112 113 113 113 113 112 110 109 108 107 106 104 102 102 101 100 98 96 95 93 91 89 86 84 81 79 76 74 75 75 72 68 68 68 66 71 77 78 79 81
114 114 114 113 113 113 113 113 113 113 113 112 112 112 112 111 111 110 108 107 105 104 103 101 100 99 98 97 96 94 93 92 90 88 86 84 81 79 75 72 73 74 72 68 69 71 68 71 78 79 80 81
117 118 117 117 117 117 117 116 116 115 114 112 111 110 110 109 108 107 106 105 103 102 101 100 99 98 97 96 95 93 92 91 90 88 86 85 82 79 75 70 70 71 71 68 68 71 71 72 77 80 81 83
119 119 119 119 119 119 118 117 116 114 112 111 109 108 107 106 105 105 104 104 103 102 100 99 99 98 96 95 95 93 91 90 89 88 86 84 82 79 74 69 68 69 70 69 68 71 73 72 75 80 82 83
119 119 119 119 118 117 116 115 114 112 110 109 107 106 105 104 103 103 102 102 102 102 101 99 98 98 97 95 94 93 91 90 89 88 86 84 82 79 75 69 67 68 70 69 68 71 74 74 75 80 84 84
118 118 117 117 116 115 114 113 112 111 109 108 107 105 104 103 102 102 101 101 101 102 102 100 99 98 97 97 95 93 92 91 89 88 87 85 83 80 76 72 68 67 69 70 70 72 75 77 79 82 87 89
117 116 116 115 115 114 113 113 112 111 109 108 107 106 105 104 104 103 102 102 101 102 102 102 101 100 98 98 97 95 93 92 91 90 89 87 84 82 79 74 70 68 69 72 73 74 77 81 83 85 89 94
116 116 116 115 115 114 114 113 113 112 111 110 109 108 107 106 105 104 103 103 102 102 102 102 103 102 101 99 98 97 95 93 93 92 90 88 86 84 82 77 74 71 70 73 75 77 80 84 87 89 91 94
116 116 116 116 115 115 114 114 113 113 113 112 111 110 108 107 106 105 104 103 103 102 102 102 102 103 103 101 99 98 97 96 94 93 92 91 89 86 84 81 77 74 72 74 77 79 83 87 91 93 94 94
117 117 117 116 116 116 115 114 114 113 113 112 112 111 110 109 107 106 105 104 103 102 102 101 101 102 103 103 101 99 98 97 96 94 93 92 91 88 86 84 80 76 74 74 78 82 85 90 94 96 97 97
117 117 117 117 116 116 115 114 113 113 112 112 111 111 111 110 109 108 107 105 104 103 102 102 101 101 101 102 103 102 99 98 97 96 94 93 92 90 87 85 83 79 76 76 78 83 87 91 96 99 101 101
117 117 117 117 116 115 115 114 113 113 112 112 111 111 110 110 110 109 108 107 106 104 103 102 102 101 101 101 102 103 102 100 98 97 96 95 94 93 90 87 86 83 79 77 79 84 89 93 97 101 104 105
117 117 117 117 116 116 115 115 114 114 113 113 112 112 111 111 110 110 109 108 107 106 104 103 102 102 101 101 101 102 103 103 101 99 98 97 96 94 93 90 88 86 82 79 80 84 89 94 98 103 106 108
118 118 118 117 117 117 116 115 115 114 114 114 114 113 113 112 112 111 110 109 108 107 106 105 103 102 101 101 101 101 102 103 103 102 101 100 99 97 95 93 90 88 86 83 81 84 89 94 99 104 108 110
119 119 119 118 117 117 117 116 116 115 114 114 114 114 114 114 113 112 112 111 110 108 107 106 105 104 103 102 101 102 102 103 104 104 103 102 101 100 97 96 94 91 90 87 84 85 89 94 98 103 109 113
119 119 119 118 118 117 116 116 116 116 115 115 114 114 114 114 114 113 113 113 112 111 110 109 108 106 105 103 103 102 102 102 103 104 105 104 103 102 100 99 97 94 92 91 88 87 89 94 98 102 107 113
119 118 118 117 117 117 116 115 115 115 115 115 115 114 114 114 114 114 114 114 113 113 113 112 111 109 108 106 105 104 103 103 103 103 105 106 105 104 103 101 99 97 95 94 93 90 90 94 97 101 105 111
118 117 116 116 115 115 115 114 113 113 113 113 113 113 113 113 113 113 113 113 113 113 113 113 113 112 111 109 108 106 105 104 104 104 104 106 106 106 105 104 102 100 98 97 96 94 93 94 97 100 104 109
115 114 113 113 113 113 112 112 111 111 110 110 110 111 111 111 111 111 112 112 112 113 113 113 113 113 113 112 111 109 107 105 105 104 105 106 107 107 107 106 105 103 102 100 98 97 96 96 97 100 103 108
111 110 110 110 110 110 110 110 110 109 109 108 108 108 109 109 109 110 110 110 110 111 112 112 113 113 113 113 113 112 110 108 106 105 105 106 106 108 109 108 107 106 105 103 101 100 99 99 99 100 103 108
108 108 108 108 108 108 107 108 108 108 108 107 107 107 107 108 108 108 108 109 109 110 110 111 112 113 113 113 114 113 113 111 109 107 106 106 107 108 109 109 109 108 107 106 105 103 102 102 101 101 103 108
106 106 106 106 106 106 105 106 106 106 106 106 106 106 106 107 107 108 108 108 108 109 110 111 111 112 113 113 114 114 114 113 112 110 108 107 107 108 109 110 111 111 110 109 108 107 105 105 105 104 104 107
105 105 105 105 105 105 104 104 104 105 105 105 105 105 104 104 105 106 107 108 108 108 109 111 112 113 113 113 114 114 115 114 114 113 111 110 109 108 109 110 111 112 112 111 110 110 109 108 107 107 106 108
104 105 104 104 103 103 103 103 103 103 103 104 104 104 103 102 103 103 104 106 107 108 108 110 111 113 114 114 114 115 115 115 115 114 113 112 111 110 110 110 111 112 112 112 112 113 112 111 110 110 109 109
104 103 103 102 102 102 102 102 102 101 102 102 102 102 102 102 102 102 102 103 105 107 108 109 110 111 113 114 115 115 115 116 116 115 114 113 112 112 111 111 112 112 113 113 114 114 114 114 112 112 112 112
102 102 101 101 101 101 101 100 100 101 101 101 101 101 101 101 101 101 101 102 103 105 107 108 109 110 110 112 114 115 115 116 116 117 116 115 114 113 113 113 113 113 114 114 115 115 115 115 115 114 115 115
Wind_Direction
273 273 273 273 273 273 273 273 273 273 273 274 273 274 274 274 273 274 274 274 275 275 275 274 274 274 274 274 274 274 274 274 273 274 274 274 272 270 269 268 268 267 266 263 261 260 257 254 253 252 251 252
273 273 273 273 273 273 273 273 273 273 273 273 273 273 273 273 273 274 274 274 274 274 274 274 274 274 274 274 273 273 273 273 273 273 273 272 271 269 269 269 268 267 266 262 258 256 254 252 251 249 247 250
273 273 272 272 272 273 274 274 274 273 273 273 273 274 274 274 274 274 274 274 274 274 274 274 274 274 274 274 273 273 273 273 273 273 272 271 269 269 268 268 268 266 264 261 256 254 251 249 248 247 246 247
273 274 274 273 273 273 274 274 274 273 273 273 274 274 274 275 275 275 274 274 274 274 274 274 274 273 273 273 273 273 273 272 272 271 270 269 268 267 267 266 266 265 263 260 258 254 249 246 246 245 244 245
276 277 277 276 276 276 275 275 274 274 274 274 275 275 275 275 275 275 275 274 274 274 274 273 273 273 273 272 272 272 271 271 270 269 268 267 266 266 265 265 265 263 261 259 257 253 245 243 243 243 242 242
279 279 279 278 278 277 277 277 276 276 275 275 276 276 276 276 275 275 275 274 274 274 273 273 272 272 272 271 271 270 270 269 269 268 267 266 265 264 264 264 263 262 260 256 253 251 243 239 240 240 240 241
280 280 280 279 279 279 278 278 278 277 277 276 276 276 275 275 275 275 275 274 274 274 273 273 272 271 271 270 269 269 269 268 268 267 266 265 264 263 262 261 261 260 258 253 250 249 244 238 238 237 238 240
281 281 280 280 280 279 279 279 278 278 277 276 276 276 275 275 275 275 275 274 274 273 273 272 272 271 270 270 269 268 268 268 267 266 265 264 263 261 260 258 257 257 255 252 248 246 243 238 236 235 235 237
280 280 280 279 279 279 279 278 278 277 276 276 275 275 275 275 274 275 274 274 274 273 272 272 271 270 269 269 268 268 267 267 266 265 264 263 262 260 258 255 253 253 252 250 247 243 241 238 234 234 234 236
279 279 279 279 279 278 278 278 278 277 277 276 275 275 274 274 274 274 274 274 274 273 272 271 271 270 270 268 268 267 267 266 265 265 263 262 261 259 257 253 249 249 250 249 245 242 240 237 233 231 233 235
279 279 279 279 279 279 278 278 278 278 277 277 276 276 275 275 274 274 273 273 273 273 273 272 271 270 270 269 268 267 266 266 265 264 263 262 260 259 256 252 247 246 248 248 244 241 239 237 234 230 230 232
280 280 279 279 279 279 279 279 278 278 277 277 277 276 276 275 274 274 273 273 272 272 272 272 272 271 270 269 269 267 266 266 265 264 263 262 260 259 256 252 248 244 245 247 244 241 239 238 235 232 231 231
279 279 279 279 279 279 279 279 278 278 278 278 277 276 276 275 274 274 273 272 272 271 271 271 271 271 270 269 268 268 267 266 265 264 263 262 261 259 257 253 249 244 243 245 243 240 238 237 235 233 232 232
279 278 278 278 278 278 278 278 278 278 278 278 278 277 276 276 275 274 273 272 271 271 270 269 269 270 270 269 268 267 267 266 265 264 263 262 261 259 257 254 250 245 242 242 243 239 236 235 235 233 233 233
278 278 278 278 278 278 278 278 277 277 277 277 277 277 277 276 275 274 273 272 271 270 269 269 268 268 268 268 268 267 266 265 264 263 263 262 261 259 257 255 252 247 242 240 241 239 236 234 234 234 233 233
279 278 278 278 278 278 278 277 277 277 277 276 276 276 276 276 275 275 274 273 272 270 269 268 267 267 266 266 267 266 265 264 264 263 262 261 260 259 257 255 253 248 243 240 239 238 236 233 233 234 234 232
279 279 279 279 279 279 278 278 278 277 277 277 276 275 275 275 275 274 274 273 272 271 270 268 267 266 265 265 265 265 265 264 263 262 261 260 260 259 257 255 253 250 244 240 238 237 235 233 231 232 233 233
280 279 279 279 279 279 279 278 278 278 278 277 277 276 276 275 275 274 274 273 272 271 270 269 267 266 265 264 263 263 264 264 263 261 261 260 259 258 257 255 253 251 246 241 238 237 235 234 232 230 232 233
280 280 279 279 279 279 279 278 278 278 277 277 277 277 276 276 275 275 274 273 272 272 271 269 268 266 265 264 263 262 261 262 262 261 260 259 258 257 256 255 253 251 248 243 238 236 235 234 232 230 230 232
280 279 279 279 279 279 279 278 278 278 277 277 276 276 276 275 275 275 274 274 273 272 271 270 268 267 265 264 262 261 260 260 260 260 260 259 258 257 256 255 253 251 249 245 239 235 235 234 233 232 230 231
279 279 279 279 279 278 278 278 277 277 277 276 276 275 275 274 274 274 273 273 273 272 271 270 269 268 266 264 262 261 260 259 258 258 259 258 258 256 255 254 253 251 249 247 242 236 234 235 234 232 231 230
279 279 279 279 278 278 277 277 276 276 276 275 275 274 274 273 273 272 272 272 271 271 271 270 269 268 267 265 263 261 260 258 257 256 257 257 257 256 255 254 252 251 249 247 244 239 235 234 234 233 232 231
280 280 279 279 279 278 277 277 276 275 275 274 274 274 273 272 272 271 271 270 270 269 269 269 268 268 267 266 264 262 260 258 257 256 255 255 255 255 255 253 252 251 249 247 245 242 237 234 234 234 233 232
280 280 280 279 279 278 278 277 277 276 275 274 274 273 273 272 271 270 270 269 268 268 267 267 267 266 266 266 265 263 261 259 257 256 254 254 253 254 254 253 252 251 249 247 245 243 240 236 234 234 233 232
281 281 281 280 280 279 279 278 277 277 276 275 274 273 273 272 271 270 269 269 268 267 266 266 265 265 264 264 264 263 262 260 258 256 255 253 252 252 252 252 251 250 249 248 245 243 242 239 235 233 234 233
283 282 282 281 280 280 279 279 278 277 276 276 274 273 273 272 271 270 269 268 268 267 266 265 264 264 263 263 262 262 261 260 259 257 255 254 252 251 251 251 250 249 248 248 246 244 242 241 238 234 233 234
283 283 282 281 281 280 279 279 278 277 276 275 274 273 272 272 271 270 269 268 267 266 266 265 264 263 262 262 261 260 260 259 259 258 256 254 253 251 250 250 249 249 248 247 246 245 243 241 240 237 234 234
284 284 283 282 282 281 280 279 278 277 277 276 274 273 272 271 270 270 269 268 267 265 264 264 264 263 262 261 260 260 259 258 258 257 256 255 253 252 250 249 249 248 248 246 246 245 244 242 240 239 236 234
285 285 284 283 283 282 281 280 279 278 277 277 276 274 273 272 270 269 269 268 267 266 264 263 262 262 261 261 260 259 259 258 257 256 255 255 253 252 251 249 248 248 247 246 245 244 244 243 241 240 238 236
286 285 285 284 283 283 282 281 280 279 278 277 276 275 274 273 272 270 269 268 267 267 265 264 262 261 260 260 260 259 258 258 257 256 255 254 253 252 251 249 248 247 247 246 245 244 244 243 241 240 239 237
287 286 285 285 284 283 282 281 281 280 279 278 277 276 275 274 273 271 270 269 267 267 266 265 263 262 260 259 259 259 258 257 257 256 255 254 253 252 251 250 249 247 246 246 245 244 243 243 242 240 239 238